Location: Rio Negrinho
(26.2394°S, 49.4999°W)
Time: 14:02:05
(UTC+00:00)

Okean O Rocket - Pass Details

Date: 07 June 2020
Orbit: 622 x 646 km, 98.2° (Epoch: 07 July)

Event Time Altitude Azimuth Distance (km) Brightness Sun altitude
Rises 08:09:15 0° 29° (NNE) 2,888 5.6 -24.3°
Reaches altitude 10° 08:11:31 10° 37° (NE) 1,989 4.8 -23.8°
Maximum altitude 08:15:33 40° 106° (ESE) 935 2.8 -23.0°
Drops below altitude 10° 08:19:39 10° 174° (S) 2,017 4.1 -22.1°
Enters shadow 08:20:05 - 176° (S) 2,186 4.2 -22.0°
